Weather in Nizhegorodskaya

Russia / Krasnodar Krai     44°16′15″N   39°55′19″E
temp.,
°C
wind,
m/s
gust,
m/s
humid.,
%
clouds,
%
prec.,
mm/h
press.,
hPa
HPBL,
m
8 may, sat
sat800:00+9s22837 0.0 101832
03:00+9s327032 0.0 101731
06:00+10s2262100 0.0 101635
09:00+17nne114599 0.0 1015522
12:00+20n2338100 0.0 10131217
15:00+21n233749 0.0 10121532
18:00+19ne126281 0.0 101258
21:00+13s325713 0.0 101239
9 may, sun
sun900:00+13s3346100 0.0 101144
03:00+12s236471 0.0 101190
06:00+11ssw1275100 0.0 101059
09:00+6nw3599100 10.9 1015414
12:00+5wnw3699100 11.4 1018748
15:00+2sw2399100 26.8 1022260
18:00+4wsw239683 2.8 1023476
21:00+4sw239793 3.0 102687
10 may, mon
mon1000:00+4ssw229689 0.3 102657
03:00+1s329416 0.4 102740
06:00+2ssw339426 0.1 102656
09:00+6wnw348142 0.6 1025850
12:00+8wnw4567100 0.8 10241492
15:00+7wnw467585 1.6 10231210
18:00+5w2694100 1.6 1024641
21:00+3sw2498100 4.2 1025360
11 may, tue
tue1100:00+2ssw3494100 0.0 102289
03:00+1ssw3594100 0.0 1021115
06:00+3ssw3792100 0.1 1019276
09:00+7sw3870100 0.3 1018870
12:00+10sw4852100 0.0 10161147
15:00+9ssw3457100 0.0 1017967
18:00+8ssw236599 0.1 1018684
21:00+5s2296100 1.4 101978
12 may, wed
wed1200:00+4se119666 0.9 101831
03:00+2sse229293 0.9 101824
06:00+3sse22895 0.0 101838
09:00+12nne115583 0.0 1015578
12:00+16n23435 0.0 10141494
15:00+18nne234640 0.1 10131595
18:00+15nne23684 0.2 1013339
21:00+9s33940 0.2 101439